SCP
0 0 -0 0 0 0 0 -0 -0 -0 0 0 -0 -0 0 -0 -0 -0 -1 -1 -0 -0 -0 0 -0 0 0 0 -0 -0 0 -0 -0 -0 -0 -0 -0 -0 -0 -0 -0 -0 -0 -0
0 -0 0 0 0 0 0 0 -0 -0 0 0 0 -0 0 -0 -0 -0 -1 -1 -1 -0 -0 -0 -0 -0 -0 -0 -0 -0 -0 -0 0 0 0 0 0 0 0 0 -0 -0 -0 -0
0 0 0 0 0 0 0 -0 -0 -0 0 0 0 0 -0 0 0 0 0 -0 -0 -0 -0 0 -0 -0 -0 -0 -0 -0 -0 -0 -0 -0 0 0 0 0 -0 -0 0 0 -0 -0
0 0 0 0 0 0 -0 0 0 -0 0 0 0 -0 -0 -0 -0 -0 0 -0 -0 -0 -0 -0 -0 0 -0 -0 -0 -0 -0 -0 -0 -0 0 -0 -0 -0 0 0 0 0 -0 -0
0 0 0 0 0 0 0 0 0 0 0 0 0 0 -0 0 -0 0 0 0 -0 -0 -0 -0 -0 -0 -0 -0 -0 -0 -0 -0 -0 -0 -0 0 0 0 0 0 0 0 0 0
0 0 0 0 0 0 0 0 0 0 0 -0 -0 -0 -0 -0 0 0 0 0 0 -0 -0 -0 -0 -0 -0 -0 -0 -0 -0 -0 -0 -0 -0 -0 -0 0 0 0 0 0 0 0
0 0 0 0 0 0 0 0 0 0 0 -0 -0 -0 -0 -0 0 0 0 -0 -0 -0 -0 -0 -0 -0 -0 -0 -0 -0 -0 -0 -0 -0 -0 -0 -0 0 0 0 0 0 0 -0
0 0 0 0 0 0 0 0 0 0 0 0 0 -0 -0 -0 -0 -0 0 0 0 0 -0 -0 -0 -0 -0 -0 -0 -0 -0 -0 -0 -0 -0 0 0 0 0 0 0 0 0 0
0 0 0 0 0 0 0 0 0 0 0 0 0 -0 -0 -0 -0 0 0 0 0 0 -0 -0 -0 -0 -0 -0 -0 -0 -0 -0 -0 -0 -0 0 0 0 0 0 0 0 0 0
0 0 0 0 0 0 0 0 0 0 -0 -0 0 0 0 0 0 -0 0 0 0 0 0 0 -0 -0 -0 -0 -0 -0 -0 -1 -1 -1 -0 -0 -0 0 0 0 0 0 0 0
0 0 0 0 0 0 0 0 0 0 0 0 0 0 0 0 0 0 -0 0 0 0 0 0 0 -0 -0 -0 0 -0 -0 -0 -0 -0 -1 -1 -0 -0 0 0 0 0 0 0
0 0 0 0 0 0 0 0 0 0 0 0 0 -0 -0 -0 -0 0 0 0 0 0 0 0 0 0 0 -0 0 -0 -0 -0 -0 -0 -0 -1 -0 -0 -0 0 0 0 0 0
0 0 0 0 0 0 0 0 0 0 0 0 0 0 -0 -0 0 0 0 0 0 0 0 0 0 0 0 0 0 0 0 -0 -0 -0 -0 -0 -0 -0 -0 0 0 0 0 0
0 0 0 0 0 0 0 0 0 0 0 -0 -0 -0 0 0 0 0 0 0 0 0 0 0 0 0 0 0 0 0 0 0 0 -0 -0 -0 -1 -1 -0 0 0 0 0 0
0 0 0 0 0 0 0 0 0 0 0 0 0 -0 -0 -0 -0 -0 0 0 0 0 0 0 0 0 0 0 0 0 0 0 0 -0 -0 -1 -0 -0 -0 -0 0 0 0 0
0 0 0 0 0 0 0 0 0 0 0 0 0 0 0 0 0 0 -0 0 0 0 0 0 0 0 0 0 0 0 0 0 0 0 -1 -0 0 -0 -0 0 0 0 0 0
0 0 0 0 0 0 0 0 0 0 0 0 0 0 0 0 0 0 0 0 0 0 0 0 0 0 0 0 0 0 0 0 0 0 0 0 0 0 0 1 1 1 0 1
0 0 0 0 0 0 0 0 0 0 0 0 0 0 0 0 0 0 0 0 0 0 0 0 0 0 0 0 0 0 0 1 1 1 1 1 1 1 1 1 1 1 1 0
-0 0 0 0 0 0 0 0 0 0 0 0 0 0 0 0 0 0 0 0 0 0 0 0 0 0 0 0 0 0 1 1 1 2 2 2 2 2 2 1 1 1 1 1
0 -0 0 0 0 -0 -0 0 0 0 -0 0 0 0 0 0 0 0 0 0 0 0 0 0 0 0 0 0 0 1 1 2 1 2 2 2 2 2 3 2 1 2 2 2
0 0 0 0 0 0 0 0 0 0 0 0 0 0 0 0 0 0 0 1 1 1 1 0 0 0 0 0 0 1 1 1 1 2 2 3 3 3 4 4 4 3 4 4
0 0 0 0 0 0 0 0 0 0 0 0 0 0 0 0 0 1 0 0 0 0 1 1 1 2 2 0 0 1 1 1 2 2 3 3 3 3 4 5 6 7 5 5
0 0 0 0 0 0 0 0 0 0 0 0 0 0 0 0 0 0 0 0 0 0 0 0 0 0 0 1 1 1 1 1 1 1 2 4 4 5 6 6 8 8 6 8
0 0 0 0 0 0 0 0 0 0 0 0 0 0 0 0 0 0 0 0 0 0 0 0 0 0 0 0 0 0 0 1 1 1 1 3 5 7 8 9 9 9 9 9
0 0 0 0 -0 0 0 -0 0 0 0 0 0 0 0 0 0 0 0 0 0 0 0 0 0 0 0 0 0 0 0 0 0 1 0 2 4 5 8 11 11 13 9 10
0 0 0 -0 -0 -0 0 -0 0 0 0 0 0 0 0 0 0 0 0 0 0 0 0 0 0 0 0 0 -0 -0 -0 -0 -0 0 1 2 4 7 11 1 0 0 6 6
Wind_Speed_500mb
20 10 26 15 14 11 11 8 8 2 7 7 16 7 22 48 45 50 64 67 70 82 84 82 79 75 73 71 68 63 64 63 58 60 59 59 58 55 50 41 38 36 31 29
8 38 18 20 17 16 10 11 16 5 11 4 11 15 23 32 56 72 70 68 77 75 68 85 84 82 79 78 77 73 68 66 68 64 59 58 59 58 54 45 42 41 35 30
30 13 24 24 13 18 13 23 11 8 5 5 6 11 8 30 20 45 55 60 70 70 82 88 90 90 86 85 88 86 78 74 74 69 64 63 62 63 59 59 53 47 40 34
12 10 27 17 25 20 16 15 11 13 8 8 8 10 10 14 37 36 47 62 70 76 73 84 93 92 97 91 88 89 85 82 77 75 73 70 66 64 64 66 59 56 48 40
20 26 28 28 17 17 15 17 17 11 10 8 9 4 12 17 22 31 40 63 75 90 86 90 95 101 105 100 94 94 91 86 82 82 80 77 74 64 57 54 60 64 62 54
18 13 26 23 15 19 14 9 11 10 8 9 21 16 10 15 28 37 38 61 73 77 93 99 98 93 101 101 103 102 102 95 92 90 89 86 80 73 64 58 54 58 59 57
11 30 6 13 15 7 12 17 4 4 7 20 17 16 27 16 32 34 47 76 84 84 84 95 94 100 101 106 105 105 106 105 100 95 93 95 90 83 70 60 56 54 57 59
24 12 39 13 18 18 15 19 12 16 9 11 13 18 12 26 33 57 67 84 83 82 90 95 112 104 106 109 110 109 106 102 103 98 94 94 94 90 81 69 58 59 58 59
18 20 5 13 11 32 12 21 17 8 2 4 9 14 10 12 20 19 50 48 58 77 86 100 103 112 113 113 115 116 114 109 106 102 94 94 96 95 89 79 68 60 62 57
6 2 13 30 12 12 20 17 9 2 14 13 8 10 12 14 25 23 18 41 64 80 82 94 95 102 117 119 118 115 113 111 109 106 104 100 97 95 88 81 75 65 63 64
11 7 4 13 18 37 6 12 7 10 12 12 1 15 17 19 24 25 30 56 67 76 85 98 97 106 112 113 115 118 116 115 114 113 110 105 102 101 96 88 77 70 64 67
3 5 13 13 6 15 44 29 17 12 20 7 9 18 8 17 23 23 34 54 68 68 70 85 92 100 103 111 112 115 117 116 115 114 111 110 105 102 101 93 82 76 70 69
10 5 3 9 7 3 9 26 17 12 5 29 15 15 30 13 16 31 36 47 43 46 58 70 73 84 97 106 109 109 112 111 112 112 114 111 108 106 104 94 87 82 75 72
3 3 6 7 2 4 12 9 17 28 25 35 42 32 10 10 17 17 40 57 55 51 50 54 58 70 91 101 108 109 107 108 105 105 108 110 111 107 103 94 88 87 80 76
7 1 5 3 20 12 20 23 19 20 43 30 33 48 22 18 21 33 62 63 53 52 44 35 43 55 78 93 99 103 98 100 98 99 102 103 108 106 100 96 91 87 85 80
7 4 4 7 18 21 18 24 24 25 23 20 42 23 18 35 59 35 54 53 59 59 56 42 38 51 70 83 93 96 94 92 94 95 99 97 100 104 100 96 94 89 88 86
4 2 3 9 7 16 22 18 32 25 16 24 35 24 15 17 20 34 65 73 73 71 61 54 41 45 64 79 87 92 95 91 96 96 96 95 96 100 99 97 97 94 90 88
5 6 4 8 7 16 11 12 10 23 38 32 29 15 25 33 66 77 83 82 78 81 83 72 62 65 67 66 76 82 88 97 96 96 95 92 92 93 96 99 100 98 93 93
30 9 6 7 9 18 32 8 9 2 15 18 30 24 17 58 48 38 46 56 66 68 66 51 48 37 49 71 77 85 88 92 94 96 97 93 91 91 94 99 100 104 102 98
15 22 6 6 11 12 1 5 21 9 9 21 19 29 28 19 11 15 56 50 50 53 50 46 42 43 47 50 67 80 91 94 91 96 98 92 90 89 91 90 93 101 106 103
9 9 27 22 9 12 8 19 12 12 12 38 36 41 35 19 30 41 20 22 29 36 38 36 29 25 26 28 39 54 66 75 76 81 89 92 89 89 83 73 84 96 102 101
13 16 11 12 10 23 8 14 4 11 35 37 41 35 32 24 34 29 27 29 27 29 28 20 23 16 12 13 17 34 47 51 56 65 74 82 83 81 78 87 87 90 97 90
16 14 8 19 13 12 12 13 17 13 26 29 35 24 6 34 48 48 51 51 45 44 43 38 36 33 29 20 7 19 35 41 46 50 60 70 78 81 84 89 93 87 92 86
11 4 7 12 12 16 17 12 10 13 20 20 13 8 21 37 55 57 51 51 45 42 39 34 30 31 28 26 21 15 9 11 19 38 50 55 68 75 83 85 90 85 93 98
17 16 6 10 28 23 13 8 3 6 7 15 21 34 36 36 47 56 53 50 47 42 39 33 29 26 24 22 21 22 25 31 37 39 38 48 60 73 83 89 93 95 93 94
11 10 8 17 15 22 15 8 8 18 11 27 38 43 41 39 44 49 53 46 40 35 31 25 22 22 24 26 28 32 38 43 50 58 63 59 56 65 81 93 90 87 81 86
Wind_Direction_500mb
181 176 209 181 183 178 194 193 235 225 228 143 221 236 184 183 189 188 190 192 203 209 209 209 213 214 216 215 212 211 210 209 209 210 212 214 214 216 223 228 228 224 231 231
128 222 190 177 191 183 198 232 248 291 247 156 274 241 206 182 203 194 190 194 203 211 208 211 213 216 218 217 215 213 212 215 215 217 218 220 220 223 227 232 230 236 235 229
198 217 169 189 176 182 200 208 216 168 335 277 106 295 208 214 211 202 208 202 207 212 208 212 213 215 218 219 217 215 212 215 219 219 220 223 225 229 230 231 233 235 237 237
207 210 188 175 204 176 214 183 161 165 121 217 149 269 261 205 208 204 200 201 210 216 216 216 217 218 218 218 217 218 218 219 221 223 223 224 226 228 230 235 237 239 238 240
212 179 181 206 190 166 220 152 183 164 188 154 219 271 253 163 203 218 212 209 210 217 218 219 218 219 219 219 219 220 221 221 223 225 226 226 227 230 234 238 238 238 240 245
195 200 189 197 181 178 158 101 63 49 103 236 214 178 243 185 203 214 219 221 217 214 221 226 227 224 225 226 226 225 225 224 225 227 227 229 229 231 230 233 237 234 237 235
193 222 210 153 165 145 147 109 301 292 193 240 165 195 230 213 201 200 212 222 223 217 216 221 224 226 225 225 227 228 229 229 228 228 230 231 231 232 234 234 235 229 227 230
182 220 211 197 190 181 182 156 168 202 214 231 121 232 241 206 208 218 222 223 219 219 219 218 223 224 227 226 227 230 230 230 230 230 231 231 233 234 236 235 237 234 229 230
180 237 247 185 163 162 184 199 172 78 236 27 219 297 307 201 222 213 228 230 220 216 218 223 220 224 228 229 228 228 231 232 233 232 231 231 232 234 236 236 236 237 233 233
247 225 208 205 124 190 162 158 131 10 189 243 274 256 213 205 207 210 216 214 224 225 218 222 222 221 228 233 235 232 232 233 234 235 234 233 234 235 236 237 237 238 233 232
6 124 295 115 198 197 146 181 101 147 160 185 173 252 204 205 216 220 222 219 228 229 225 227 225 228 231 233 229 236 236 234 234 237 238 237 236 236 236 237 237 237 237 229
32 108 216 207 231 230 211 202 160 180 220 222 177 244 235 225 220 198 222 232 237 238 241 238 237 230 225 231 231 232 237 237 238 237 238 239 239 238 237 237 237 235 237 232
328 2 73 24 330 321 186 226 195 211 93 215 200 243 237 221 178 225 247 251 232 236 245 242 235 229 226 228 230 232 236 238 238 236 238 238 239 239 239 239 237 237 236 235
76 105 125 221 232 343 305 302 201 207 225 233 233 253 292 271 245 241 237 244 247 244 248 255 252 242 231 227 229 231 235 237 234 234 236 238 238 239 239 240 237 236 234 234
83 215 348 294 284 252 244 257 264 238 228 222 237 243 230 236 230 234 243 252 249 253 256 271 263 243 230 224 227 230 233 233 233 233 235 239 240 239 238 238 237 236 235 234
1 227 135 268 270 292 285 266 259 243 238 258 256 255 192 217 227 236 248 255 254 248 250 270 280 243 231 227 227 228 230 234 234 235 237 238 236 236 235 234 234 234 236 235
35 101 37 254 263 313 286 241 241 242 199 219 245 239 229 247 205 223 236 244 248 253 255 263 262 254 237 231 232 232 236 235 235 237 237 236 235 235 235 232 230 231 232 234
193 137 164 258 309 242 246 272 259 256 237 218 236 214 211 225 240 239 243 240 247 252 258 261 261 258 244 242 237 242 240 238 236 237 235 234 234 236 235 233 229 229 230 232
205 168 224 212 224 296 306 11 4 54 288 265 213 212 222 223 245 253 249 251 254 255 259 258 235 257 253 244 246 246 246 242 239 239 237 235 235 234 233 234 231 230 229 232
178 218 232 155 207 234 236 250 289 152 260 9 328 216 206 166 203 249 259 260 256 253 243 258 260 259 249 245 251 241 237 238 239 242 239 238 237 236 234 236 237 234 233 233
152 183 217 239 250 285 267 304 325 187 286 318 311 293 241 192 218 229 230 214 229 230 235 241 250 252 253 243 239 236 240 241 249 246 243 238 236 237 237 240 245 241 236 235
175 175 183 218 241 240 325 328 279 335 311 308 302 299 282 213 168 167 147 134 133 131 130 146 203 212 234 244 234 238 246 256 255 254 251 247 244 242 238 237 239 241 237 232
231 210 216 198 207 237 178 219 271 310 298 306 306 329 161 156 144 137 127 120 114 108 104 100 97 96 90 82 170 217 232 243 245 247 254 256 256 249 241 244 244 232 230 227
261 23 223 297 258 248 243 258 322 350 322 324 344 50 128 130 129 122 115 110 106 99 96 92 85 80 74 67 61 54 20 335 289 270 262 259 256 256 249 248 245 228 229 227
258 333 326 295 276 285 215 289 296 60 340 83 85 96 109 118 115 110 103 98 95 91 85 76 69 62 47 30 8 348 330 317 308 300 293 271 256 255 248 246 240 226 233 226
203 219 225 247 277 253 239 229 133 113 90 90 94 92 96 95 91 95 90 88 87 80 75 70 58 48 38 17 357 342 329 318 306 294 287 278 271 254 243 238 232 223 230 222
Wind_Speed_850mb
20 10 26 15 14 11 11 8 8 2 7 7 16 7 22 48 45 50 64 67 70 82 84 82 79 75 73 71 68 63 64 63 58 60 59 59 58 55 50 41 38 36 31 29
8 38 18 20 17 16 10 11 16 5 11 4 11 15 23 32 56 72 70 68 77 75 68 85 84 82 79 78 77 73 68 66 68 64 59 58 59 58 54 45 42 41 35 30
30 13 24 24 13 18 13 23 11 8 5 5 6 11 8 30 20 45 55 60 70 70 82 88 90 90 86 85 88 86 78 74 74 69 64 63 62 63 59 59 53 47 40 34
12 10 27 17 25 20 16 15 11 13 8 8 8 10 10 14 37 36 47 62 70 76 73 84 93 92 97 91 88 89 85 82 77 75 73 70 66 64 64 66 59 56 48 40
20 26 28 28 17 17 15 17 17 11 10 8 9 4 12 17 22 31 40 63 75 90 86 90 95 101 105 100 94 94 91 86 82 82 80 77 74 64 57 54 60 64 62 54
18 13 26 23 15 19 14 9 11 10 8 9 21 16 10 15 28 37 38 61 73 77 93 99 98 93 101 101 103 102 102 95 92 90 89 86 80 73 64 58 54 58 59 57
11 30 6 13 15 7 12 17 4 4 7 20 17 16 27 16 32 34 47 76 84 84 84 95 94 100 101 106 105 105 106 105 100 95 93 95 90 83 70 60 56 54 57 59
24 12 39 13 18 18 15 19 12 16 9 11 13 18 12 26 33 57 67 84 83 82 90 95 112 104 106 109 110 109 106 102 103 98 94 94 94 90 81 69 58 59 58 59
18 20 5 13 11 32 12 21 17 8 2 4 9 14 10 12 20 19 50 48 58 77 86 100 103 112 113 113 115 116 114 109 106 102 94 94 96 95 89 79 68 60 62 57
6 2 13 30 12 12 20 17 9 2 14 13 8 10 12 14 25 23 18 41 64 80 82 94 95 102 117 119 118 115 113 111 109 106 104 100 97 95 88 81 75 65 63 64
11 7 4 13 18 37 6 12 7 10 12 12 1 15 17 19 24 25 30 56 67 76 85 98 97 106 112 113 115 118 116 115 114 113 110 105 102 101 96 88 77 70 64 67
3 5 13 13 6 15 44 29 17 12 20 7 9 18 8 17 23 23 34 54 68 68 70 85 92 100 103 111 112 115 117 116 115 114 111 110 105 102 101 93 82 76 70 69
10 5 3 9 7 3 9 26 17 12 5 29 15 15 30 13 16 31 36 47 43 46 58 70 73 84 97 106 109 109 112 111 112 112 114 111 108 106 104 94 87 82 75 72
3 3 6 7 2 4 12 9 17 28 25 35 42 32 10 10 17 17 40 57 55 51 50 54 58 70 91 101 108 109 107 108 105 105 108 110 111 107 103 94 88 87 80 76
7 1 5 3 20 12 20 23 19 20 43 30 33 48 22 18 21 33 62 63 53 52 44 35 43 55 78 93 99 103 98 100 98 99 102 103 108 106 100 96 91 87 85 80
7 4 4 7 18 21 18 24 24 25 23 20 42 23 18 35 59 35 54 53 59 59 56 42 38 51 70 83 93 96 94 92 94 95 99 97 100 104 100 96 94 89 88 86
4 2 3 9 7 16 22 18 32 25 16 24 35 24 15 17 20 34 65 73 73 71 61 54 41 45 64 79 87 92 95 91 96 96 96 95 96 100 99 97 97 94 90 88
5 6 4 8 7 16 11 12 10 23 38 32 29 15 25 33 66 77 83 82 78 81 83 72 62 65 67 66 76 82 88 97 96 96 95 92 92 93 96 99 100 98 93 93
30 9 6 7 9 18 32 8 9 2 15 18 30 24 17 58 48 38 46 56 66 68 66 51 48 37 49 71 77 85 88 92 94 96 97 93 91 91 94 99 100 104 102 98
15 22 6 6 11 12 1 5 21 9 9 21 19 29 28 19 11 15 56 50 50 53 50 46 42 43 47 50 67 80 91 94 91 96 98 92 90 89 91 90 93 101 106 103
9 9 27 22 9 12 8 19 12 12 12 38 36 41 35 19 30 41 20 22 29 36 38 36 29 25 26 28 39 54 66 75 76 81 89 92 89 89 83 73 84 96 102 101
13 16 11 12 10 23 8 14 4 11 35 37 41 35 32 24 34 29 27 29 27 29 28 20 23 16 12 13 17 34 47 51 56 65 74 82 83 81 78 87 87 90 97 90
16 14 8 19 13 12 12 13 17 13 26 29 35 24 6 34 48 48 51 51 45 44 43 38 36 33 29 20 7 19 35 41 46 50 60 70 78 81 84 89 93 87 92 86
11 4 7 12 12 16 17 12 10 13 20 20 13 8 21 37 55 57 51 51 45 42 39 34 30 31 28 26 21 15 9 11 19 38 50 55 68 75 83 85 90 85 93 98
17 16 6 10 28 23 13 8 3 6 7 15 21 34 36 36 47 56 53 50 47 42 39 33 29 26 24 22 21 22 25 31 37 39 38 48 60 73 83 89 93 95 93 94
11 10 8 17 15 22 15 8 8 18 11 27 38 43 41 39 44 49 53 46 40 35 31 25 22 22 24 26 28 32 38 43 50 58 63 59 56 65 81 93 90 87 81 86
Wind_Direction_850mb
181 176 209 181 183 178 194 193 235 225 228 143 221 236 184 183 189 188 190 192 203 209 209 209 213 214 216 215 212 211 210 209 209 210 212 214 214 216 223 228 228 224 231 231
128 222 190 177 191 183 198 232 248 291 247 156 274 241 206 182 203 194 190 194 203 211 208 211 213 216 218 217 215 213 212 215 215 217 218 220 220 223 227 232 230 236 235 229
198 217 169 189 176 182 200 208 216 168 335 277 106 295 208 214 211 202 208 202 207 212 208 212 213 215 218 219 217 215 212 215 219 219 220 223 225 229 230 231 233 235 237 237
207 210 188 175 204 176 214 183 161 165 121 217 149 269 261 205 208 204 200 201 210 216 216 216 217 218 218 218 217 218 218 219 221 223 223 224 226 228 230 235 237 239 238 240
212 179 181 206 190 166 220 152 183 164 188 154 219 271 253 163 203 218 212 209 210 217 218 219 218 219 219 219 219 220 221 221 223 225 226 226 227 230 234 238 238 238 240 245
195 200 189 197 181 178 158 101 63 49 103 236 214 178 243 185 203 214 219 221 217 214 221 226 227 224 225 226 226 225 225 224 225 227 227 229 229 231 230 233 237 234 237 235
193 222 210 153 165 145 147 109 301 292 193 240 165 195 230 213 201 200 212 222 223 217 216 221 224 226 225 225 227 228 229 229 228 228 230 231 231 232 234 234 235 229 227 230
182 220 211 197 190 181 182 156 168 202 214 231 121 232 241 206 208 218 222 223 219 219 219 218 223 224 227 226 227 230 230 230 230 230 231 231 233 234 236 235 237 234 229 230
180 237 247 185 163 162 184 199 172 78 236 27 219 297 307 201 222 213 228 230 220 216 218 223 220 224 228 229 228 228 231 232 233 232 231 231 232 234 236 236 236 237 233 233
247 225 208 205 124 190 162 158 131 10 189 243 274 256 213 205 207 210 216 214 224 225 218 222 222 221 228 233 235 232 232 233 234 235 234 233 234 235 236 237 237 238 233 232
6 124 295 115 198 197 146 181 101 147 160 185 173 252 204 205 216 220 222 219 228 229 225 227 225 228 231 233 229 236 236 234 234 237 238 237 236 236 236 237 237 237 237 229
32 108 216 207 231 230 211 202 160 180 220 222 177 244 235 225 220 198 222 232 237 238 241 238 237 230 225 231 231 232 237 237 238 237 238 239 239 238 237 237 237 235 237 232
328 2 73 24 330 321 186 226 195 211 93 215 200 243 237 221 178 225 247 251 232 236 245 242 235 229 226 228 230 232 236 238 238 236 238 238 239 239 239 239 237 237 236 235
76 105 125 221 232 343 305 302 201 207 225 233 233 253 292 271 245 241 237 244 247 244 248 255 252 242 231 227 229 231 235 237 234 234 236 238 238 239 239 240 237 236 234 234
83 215 348 294 284 252 244 257 264 238 228 222 237 243 230 236 230 234 243 252 249 253 256 271 263 243 230 224 227 230 233 233 233 233 235 239 240 239 238 238 237 236 235 234
1 227 135 268 270 292 285 266 259 243 238 258 256 255 192 217 227 236 248 255 254 248 250 270 280 243 231 227 227 228 230 234 234 235 237 238 236 236 235 234 234 234 236 235
35 101 37 254 263 313 286 241 241 242 199 219 245 239 229 247 205 223 236 244 248 253 255 263 262 254 237 231 232 232 236 235 235 237 237 236 235 235 235 232 230 231 232 234
193 137 164 258 309 242 246 272 259 256 237 218 236 214 211 225 240 239 243 240 247 252 258 261 261 258 244 242 237 242 240 238 236 237 235 234 234 236 235 233 229 229 230 232
205 168 224 212 224 296 306 11 4 54 288 265 213 212 222 223 245 253 249 251 254 255 259 258 235 257 253 244 246 246 246 242 239 239 237 235 235 234 233 234 231 230 229 232
178 218 232 155 207 234 236 250 289 152 260 9 328 216 206 166 203 249 259 260 256 253 243 258 260 259 249 245 251 241 237 238 239 242 239 238 237 236 234 236 237 234 233 233
152 183 217 239 250 285 267 304 325 187 286 318 311 293 241 192 218 229 230 214 229 230 235 241 250 252 253 243 239 236 240 241 249 246 243 238 236 237 237 240 245 241 236 235
175 175 183 218 241 240 325 328 279 335 311 308 302 299 282 213 168 167 147 134 133 131 130 146 203 212 234 244 234 238 246 256 255 254 251 247 244 242 238 237 239 241 237 232
231 210 216 198 207 237 178 219 271 310 298 306 306 329 161 156 144 137 127 120 114 108 104 100 97 96 90 82 170 217 232 243 245 247 254 256 256 249 241 244 244 232 230 227
261 23 223 297 258 248 243 258 322 350 322 324 344 50 128 130 129 122 115 110 106 99 96 92 85 80 74 67 61 54 20 335 289 270 262 259 256 256 249 248 245 228 229 227
258 333 326 295 276 285 215 289 296 60 340 83 85 96 109 118 115 110 103 98 95 91 85 76 69 62 47 30 8 348 330 317 308 300 293 271 256 255 248 246 240 226 233 226
203 219 225 247 277 253 239 229 133 113 90 90 94 92 96 95 91 95 90 88 87 80 75 70 58 48 38 17 357 342 329 318 306 294 287 278 271 254 243 238 232 223 230 222